CPA155 VHHH-YPPH

Flight info

Callsign CPA155
Flight time N/A
Altitude 34000
Route PECAN1Y PECAN V11 LAXET V12 EPDOS/K0930F340 DCT MESOX/K0926F350 N892 MUGAN/N0500F350 DCT ASISU M768 BRU/N0504F340 R223 AGSON/N0496F360 R223 ELANG/N0499F350 M522 BLI G578 LIPRA/N0494F370 G578 EGATU L514 MUNNI/N0490F380 L514 AVPAL Q38 JULIM JULIM6A
Aircraft B77W/H-SDE1E2E3FGHIJ2J3J4J5M1RWXY/LB1D1

Departure

Time 2026-05-05 12:01
Airport Hong Kong International Airport (VHHH)

Arrival

Time N/A
Airport Perth International Airport (YPPH)
Time Latitude Longitude Altitude Speed Heading
2026-05-05 11:01 22.31471 113.92568 37 ft 0 kts 206°
2026-05-05 11:42 22.31472 113.92569 10 ft 2 kts 206°
2026-05-05 11:42 22.31492 113.92579 36 ft 4 kts 206°
2026-05-05 11:42 22.31512 113.92589 35 ft 4 kts 205°
2026-05-05 11:43 22.31532 113.92600 34 ft 4 kts 215°
2026-05-05 11:43 22.31550 113.92620 35 ft 4 kts 248°
2026-05-05 11:43 22.31556 113.92644 32 ft 4 kts 253°
2026-05-05 11:43 22.31559 113.92654 33 ft 1 kts 249°
2026-05-05 11:44 22.31560 113.92655 33 ft 0 kts 249°
2026-05-05 11:47 22.31558 113.92648 32 ft 4 kts 255°
2026-05-05 11:47 22.31559 113.92604 37 ft 10 kts 282°
2026-05-05 11:47 22.31591 113.92536 37 ft 12 kts 296°
2026-05-05 11:48 22.31643 113.92391 37 ft 12 kts 266°
2026-05-05 11:48 22.31628 113.92326 37 ft 12 kts 252°
2026-05-05 11:48 22.31606 113.92259 37 ft 12 kts 251°
2026-05-05 11:49 22.31583 113.92187 37 ft 12 kts 250°
2026-05-05 11:49 22.31559 113.92113 37 ft 12 kts 250°
2026-05-05 11:49 22.31535 113.92040 37 ft 12 kts 251°
2026-05-05 11:49 22.31512 113.91964 37 ft 12 kts 251°
2026-05-05 11:50 22.31488 113.91889 37 ft 12 kts 250°
2026-05-05 11:50 22.31464 113.91816 37 ft 12 kts 250°
2026-05-05 11:50 22.31435 113.91728 37 ft 12 kts 250°
2026-05-05 11:50 22.31411 113.91654 37 ft 12 kts 250°
2026-05-05 11:51 22.31387 113.91581 37 ft 12 kts 251°
2026-05-05 11:51 22.31364 113.91507 37 ft 12 kts 251°
2026-05-05 11:51 22.31310 113.91463 37 ft 12 kts 181°
2026-05-05 11:51 22.31256 113.91478 37 ft 12 kts 160°
2026-05-05 11:52 22.31191 113.91503 37 ft 12 kts 161°
2026-05-05 11:52 22.31121 113.91528 37 ft 12 kts 161°
2026-05-05 11:52 22.31052 113.91554 37 ft 13 kts 161°
2026-05-05 11:53 22.30978 113.91582 37 ft 14 kts 161°
2026-05-05 11:53 22.30784 113.91654 37 ft 17 kts 161°
2026-05-05 11:53 22.30674 113.91694 37 ft 17 kts 161°
2026-05-05 11:54 22.30566 113.91734 37 ft 16 kts 160°
2026-05-05 11:54 22.30487 113.91765 37 ft 8 kts 161°
2026-05-05 11:54 22.30438 113.91749 37 ft 8 kts 227°
2026-05-05 11:54 22.30414 113.91694 37 ft 9 kts 250°
2026-05-05 11:55 22.30392 113.91628 37 ft 10 kts 250°
2026-05-05 11:55 22.30363 113.91539 37 ft 16 kts 251°
2026-05-05 11:55 22.30323 113.91413 37 ft 18 kts 251°
2026-05-05 11:55 22.30281 113.91282 37 ft 18 kts 251°
2026-05-05 11:56 22.30239 113.91151 37 ft 18 kts 251°
2026-05-05 11:56 22.30196 113.91020 37 ft 18 kts 251°
2026-05-05 11:56 22.30155 113.90891 37 ft 18 kts 251°
2026-05-05 11:56 22.30112 113.90761 37 ft 18 kts 251°
2026-05-05 11:57 22.30070 113.90630 37 ft 18 kts 250°
2026-05-05 11:57 22.30028 113.90499 37 ft 18 kts 251°
2026-05-05 11:57 22.29986 113.90368 37 ft 18 kts 251°
2026-05-05 11:57 22.29950 113.90256 37 ft 18 kts 251°
2026-05-05 11:58 22.29908 113.90125 37 ft 18 kts 251°
2026-05-05 11:58 22.29866 113.89995 37 ft 18 kts 251°
2026-05-05 11:58 22.29826 113.89891 37 ft 10 kts 229°
2026-05-05 11:58 22.29775 113.89877 37 ft 8 kts 171°
2026-05-05 11:59 22.29720 113.89895 35 ft 10 kts 161°
2026-05-05 11:59 22.29672 113.89941 35 ft 10 kts 102°
2026-05-05 11:59 22.29682 113.89996 35 ft 0 kts 71°
2026-05-05 12:00 22.29701 113.90056 35 ft 19 kts 71°
2026-05-05 12:00 22.29810 113.90394 35 ft 82 kts 71°
2026-05-05 12:00 22.30068 113.91192 36 ft 144 kts 71°
2026-05-05 12:01 22.30459 113.92401 52 ft 189 kts 72°
2026-05-05 12:01 22.30897 113.93779 516 ft 196 kts 72°
2026-05-05 12:01 22.31346 113.95158 1163 ft 196 kts 71°
2026-05-05 12:01 22.31802 113.96573 1682 ft 202 kts 72°
2026-05-05 12:02 22.32255 113.97980 2272 ft 203 kts 72°
2026-05-05 12:02 22.32732 113.99463 2749 ft 209 kts 73°
2026-05-05 12:02 22.33208 114.00942 3240 ft 215 kts 73°
2026-05-05 12:02 22.33686 114.02497 3658 ft 221 kts 79°
2026-05-05 12:03 22.33590 114.04180 3795 ft 237 kts 115°
2026-05-05 12:03 22.32515 114.05539 4113 ft 246 kts 152°
2026-05-05 12:03 22.30867 114.06114 4482 ft 256 kts 172°
2026-05-05 12:03 22.29063 114.06402 4975 ft 266 kts 173°
2026-05-05 12:04 22.27216 114.06700 5624 ft 270 kts 173°
2026-05-05 12:04 22.25351 114.07007 6322 ft 272 kts 173°
2026-05-05 12:04 22.23469 114.07323 7003 ft 275 kts 173°
2026-05-05 12:04 22.21573 114.07649 7665 ft 278 kts 173°
2026-05-05 12:05 22.19658 114.07983 8304 ft 281 kts 173°
2026-05-05 12:05 22.18014 114.08270 8840 ft 284 kts 173°
2026-05-05 12:05 22.16035 114.08594 9438 ft 286 kts 178°
2026-05-05 12:05 22.14044 114.08622 10028 ft 288 kts 186°
2026-05-05 12:06 22.12028 114.08459 10423 ft 301 kts 188°
2026-05-05 12:06 22.09862 114.08251 10575 ft 323 kts 188°
2026-05-05 12:06 22.07567 114.07961 10714 ft 337 kts 198°
2026-05-05 12:06 22.05229 114.07465 10787 ft 355 kts 189°
2026-05-05 12:07 22.02700 114.07297 11129 ft 371 kts 185°
2026-05-05 12:07 22.00082 114.07226 11674 ft 380 kts 184°
2026-05-05 12:07 21.97414 114.07134 12341 ft 387 kts 185°
2026-05-05 12:07 21.94721 114.06995 13133 ft 389 kts 186°
2026-05-05 12:08 21.92003 114.06818 13919 ft 393 kts 187°
2026-05-05 12:08 21.89258 114.06618 14532 ft 398 kts 187°
2026-05-05 12:08 21.86480 114.06412 15151 ft 402 kts 187°
2026-05-05 12:08 21.83691 114.06204 15822 ft 406 kts 188°
2026-05-05 12:09 21.80864 114.05993 16484 ft 409 kts 188°
2026-05-05 12:09 21.78032 114.05783 17130 ft 412 kts 188°
2026-05-05 12:09 21.75155 114.05581 17744 ft 417 kts 188°
2026-05-05 12:09 21.72242 114.05388 18353 ft 421 kts 188°
2026-05-05 12:10 21.69336 114.05196 18886 ft 425 kts 188°
2026-05-05 12:10 21.66372 114.05026 19409 ft 429 kts 186°
2026-05-05 12:10 21.63412 114.05061 19947 ft 434 kts 182°
2026-05-05 12:10 21.60391 114.05231 20476 ft 439 kts 181°
2026-05-05 12:11 21.57328 114.05450 20978 ft 442 kts 180°
2026-05-05 12:11 21.54250 114.05676 21482 ft 446 kts 181°
2026-05-05 12:11 21.51140 114.05891 21982 ft 449 kts 181°
2026-05-05 12:11 21.48011 114.06091 22485 ft 452 kts 181°
2026-05-05 12:12 21.44859 114.06279 22975 ft 455 kts 181°
2026-05-05 12:12 21.41682 114.06458 23439 ft 459 kts 181°
2026-05-05 12:12 21.38481 114.06633 23839 ft 462 kts 182°
2026-05-05 12:12 21.35256 114.06806 24213 ft 466 kts 182°
2026-05-05 12:13 21.32009 114.06979 24591 ft 468 kts 182°
2026-05-05 12:13 21.28751 114.07152 24976 ft 471 kts 182°
2026-05-05 12:13 21.25461 114.07328 25306 ft 474 kts 182°
2026-05-05 12:13 21.22154 114.07505 25653 ft 478 kts 182°
2026-05-05 12:14 21.18818 114.07684 25994 ft 481 kts 182°
2026-05-05 12:14 21.15464 114.07864 26333 ft 484 kts 182°
2026-05-05 12:14 21.12091 114.08045 26671 ft 487 kts 182°
2026-05-05 12:14 21.08692 114.08228 27007 ft 490 kts 182°
2026-05-05 12:15 21.05276 114.08411 27338 ft 493 kts 182°
2026-05-05 12:15 21.01835 114.08596 27660 ft 496 kts 182°
2026-05-05 12:15 20.98377 114.08781 27960 ft 500 kts 182°
2026-05-05 12:15 20.94895 114.08968 28267 ft 502 kts 182°
2026-05-05 12:16 20.91394 114.09155 28564 ft 505 kts 182°
2026-05-05 12:16 20.87874 114.09344 28854 ft 507 kts 182°
2026-05-05 12:16 20.84342 114.09533 29132 ft 510 kts 182°
2026-05-05 12:16 20.80792 114.09723 29393 ft 513 kts 182°
2026-05-05 12:17 20.77217 114.09914 29648 ft 515 kts 182°
2026-05-05 12:17 20.73631 114.10106 29905 ft 517 kts 182°
2026-05-05 12:17 20.70030 114.10299 30162 ft 518 kts 182°
2026-05-05 12:17 20.66434 114.10492 30466 ft 517 kts 181°
2026-05-05 12:18 20.62842 114.10685 30799 ft 516 kts 181°
2026-05-05 12:18 20.59259 114.10877 31126 ft 515 kts 181°
2026-05-05 12:18 20.55679 114.11069 31446 ft 515 kts 182°
2026-05-05 12:18 20.52103 114.11260 31764 ft 514 kts 182°
2026-05-05 12:19 20.48534 114.11450 32076 ft 514 kts 182°
2026-05-05 12:19 20.44966 114.11640 32394 ft 513 kts 182°
2026-05-05 12:19 20.41402 114.11829 32710 ft 512 kts 182°
2026-05-05 12:19 20.37845 114.12018 33022 ft 512 kts 182°
2026-05-05 12:20 20.34290 114.12207 33338 ft 511 kts 182°
2026-05-05 12:20 20.30741 114.12395 33636 ft 511 kts 182°
2026-05-05 12:20 20.27193 114.12583 33883 ft 511 kts 182°
2026-05-05 12:20 20.23619 114.12772 33937 ft 514 kts 182°
2026-05-05 12:21 20.16481 114.13150 33943 ft 511 kts 182°
2026-05-05 12:21 20.09409 114.13528 33957 ft 508 kts 182°
2026-05-05 12:22 20.02398 114.13898 33947 ft 507 kts 182°
2026-05-05 12:22 19.95349 114.14270 33958 ft 508 kts 182°
2026-05-05 12:23 19.88279 114.14643 33958 ft 509 kts 182°
2026-05-05 12:23 19.81196 114.15016 33956 ft 510 kts 182°
2026-05-05 12:24 19.74093 114.15391 33941 ft 511 kts 181°
2026-05-05 12:24 19.66981 114.15766 33954 ft 512 kts 181°
2026-05-05 12:25 19.59866 114.16141 33951 ft 512 kts 181°
2026-05-05 12:25 19.52729 114.16517 33950 ft 513 kts 181°
2026-05-05 12:26 19.45608 114.16891 33952 ft 513 kts 181°
2026-05-05 12:26 19.38486 114.17265 33936 ft 512 kts 181°
2026-05-05 12:27 19.31371 114.17638 33951 ft 512 kts 181°
2026-05-05 12:27 19.24260 114.18012 33948 ft 511 kts 181°
2026-05-05 12:28 19.18361 114.18321 33946 ft 511 kts 181°
2026-05-05 12:28 19.11257 114.18692 33935 ft 511 kts 181°
2026-05-05 12:29 19.03001 114.19124 33946 ft 511 kts 181°
2026-05-05 12:29 18.95895 114.19495 33950 ft 511 kts 181°
2026-05-05 12:30 18.89941 114.19806 33944 ft 511 kts 181°
2026-05-05 12:30 18.82830 114.20177 33945 ft 512 kts 181°
2026-05-05 12:31 18.75716 114.20547 33937 ft 512 kts 180°
2026-05-05 12:31 18.68651 114.20915 33937 ft 512 kts 180°
2026-05-05 12:32 18.61535 114.21286 33939 ft 512 kts 180°
2026-05-05 12:32 18.54412 114.21656 33940 ft 512 kts 180°
2026-05-05 12:33 18.47296 114.22025 33930 ft 512 kts 180°
2026-05-05 12:33 18.40178 114.22395 33941 ft 512 kts 180°
2026-05-05 12:34 18.33062 114.22764 33940 ft 512 kts 180°
2026-05-05 12:34 18.25939 114.23133 33922 ft 512 kts 180°
2026-05-05 12:35 18.18817 114.23502 33932 ft 512 kts 180°
2026-05-05 12:35 18.11701 114.23870 33931 ft 512 kts 180°
2026-05-05 12:36 18.04582 114.24238 33939 ft 512 kts 180°
2026-05-05 12:36 17.97463 114.24606 33935 ft 512 kts 180°
2026-05-05 12:37 17.90343 114.24973 33928 ft 512 kts 180°
2026-05-05 12:37 17.83222 114.25340 33922 ft 512 kts 180°
2026-05-05 12:38 17.76099 114.25707 33929 ft 512 kts 180°
2026-05-05 12:38 17.68981 114.26074 33931 ft 512 kts 180°
2026-05-05 12:39 17.61861 114.26440 33931 ft 512 kts 180°
2026-05-05 12:39 17.54794 114.26803 33927 ft 512 kts 180°
2026-05-05 12:40 17.47668 114.27169 33920 ft 512 kts 180°
2026-05-05 12:40 17.40560 114.27534 33926 ft 512 kts 180°
2026-05-05 12:41 17.33458 114.27898 33929 ft 512 kts 180°
2026-05-05 12:41 17.26343 114.28262 33924 ft 512 kts 180°
2026-05-05 12:42 17.19215 114.28627 33923 ft 512 kts 180°
2026-05-05 12:42 17.12088 114.28992 33923 ft 512 kts 180°
2026-05-05 12:43 17.04966 114.29356 33920 ft 512 kts 180°
2026-05-05 12:43 16.97842 114.29720 33921 ft 512 kts 180°
2026-05-05 12:44 16.90720 114.30084 33927 ft 512 kts 180°
2026-05-05 12:44 16.83603 114.30446 33919 ft 512 kts 180°
2026-05-05 12:45 16.76480 114.30809 33923 ft 513 kts 180°
2026-05-05 12:45 16.69349 114.31173 33923 ft 513 kts 180°
2026-05-05 12:46 16.62270 114.31533 33919 ft 513 kts 180°
2026-05-05 12:46 16.55137 114.31896 33920 ft 513 kts 180°
2026-05-05 12:47 16.48011 114.32258 33921 ft 513 kts 180°
2026-05-05 12:47 16.40888 114.32619 33918 ft 513 kts 180°
2026-05-05 12:48 16.33763 114.32981 33920 ft 512 kts 180°
2026-05-05 12:48 16.26642 114.33342 33923 ft 512 kts 180°
2026-05-05 12:49 16.19518 114.33703 33918 ft 512 kts 180°
2026-05-05 12:49 16.12401 114.34063 33917 ft 512 kts 180°
2026-05-05 12:50 16.05283 114.34423 33918 ft 512 kts 180°
2026-05-05 12:50 15.98167 114.34783 33916 ft 512 kts 180°
2026-05-05 12:51 15.91052 114.35142 33910 ft 512 kts 180°
2026-05-05 12:51 15.83940 114.35501 33918 ft 512 kts 180°
2026-05-05 12:52 15.76865 114.35858 33918 ft 512 kts 180°
2026-05-05 12:52 15.69750 114.36217 33915 ft 512 kts 180°
2026-05-05 12:53 15.62637 114.36575 33915 ft 512 kts 180°
2026-05-05 12:53 15.55520 114.36934 33919 ft 511 kts 180°
2026-05-05 12:54 15.44881 114.37470 33907 ft 509 kts 180°
2026-05-05 12:55 15.37813 114.37825 33912 ft 508 kts 180°
2026-05-05 12:55 15.30753 114.38179 33912 ft 508 kts 180°
2026-05-05 12:56 15.23695 114.38534 33912 ft 507 kts 180°
2026-05-05 12:56 15.16649 114.38887 33913 ft 507 kts 180°
2026-05-05 12:57 15.09596 114.39240 33909 ft 507 kts 180°
2026-05-05 12:57 15.02548 114.39593 33910 ft 507 kts 180°
2026-05-05 12:58 14.95495 114.39946 33906 ft 507 kts 180°
2026-05-05 12:58 14.88442 114.40299 33911 ft 508 kts 180°
2026-05-05 12:59 14.81374 114.40652 33915 ft 509 kts 180°
2026-05-05 12:59 14.74291 114.41006 33913 ft 509 kts 180°
2026-05-05 13:00 14.63683 114.41535 33913 ft 510 kts 180°
2026-05-05 13:01 14.49558 114.42240 33912 ft 510 kts 180°
2026-05-05 13:01 14.42467 114.42593 33912 ft 510 kts 180°
2026-05-05 13:02 14.35382 114.42946 33912 ft 509 kts 180°
2026-05-05 13:02 14.28304 114.43298 33910 ft 509 kts 179°
2026-05-05 13:03 14.21243 114.43650 33911 ft 507 kts 179°
2026-05-05 13:03 14.14190 114.44000 33911 ft 506 kts 179°
2026-05-05 13:04 14.07158 114.44349 33909 ft 506 kts 179°
2026-05-05 13:04 14.00134 114.44697 33909 ft 505 kts 179°
2026-05-05 13:05 13.93115 114.45045 33912 ft 505 kts 179°
2026-05-05 13:05 13.86092 114.45393 33913 ft 505 kts 179°
2026-05-05 13:06 13.79066 114.45741 33913 ft 506 kts 180°
2026-05-05 13:06 13.72029 114.46089 33912 ft 506 kts 180°